Regional Weather Roundup
Issued by NWS

Home | Current Version | Previous Version | Graphics & Text | Print | Product List | Glossary On
Versions: 1 2 3 4 5 6 7 8 9 10 11 12 13 14 15 16 17 18 19 20 21 22 23 24 25 26 27 28 29 30 31 32 33 34 35 36 37 38 39 40 41 42 43 44 45 46 47 48 49 50
000
ASUS45 KCYS 231410
RWRWY

WYOMING REGIONAL WEATHER ROUNDUP
NATIONAL WEATHER SERVICE CHEYENNE WY
800 AM MDT SAT AUG 23 2014

NOTE:  "FAIR" INDICATES FEW OR NO CLOUDS BELOW 12,000 FEET
WITH NO SIGNIFICANT WEATHER AND/OR OBSTRUCTIONS TO VISIBILITY.

WYZ001-231500-
YELLOWSTONE NATIONAL PARK

CITY           SKY/WX    TMP DP  RH WIND       PRES   REMARKS
LK YELLOWSTONE   N/A     43  41  93 W3        30.11S
W YELLOWSTONE  NOT AVBL

$$
WYZ002>013-054>058-071-098>099-231500-
NORTHERN WYOMING

CITY           SKY/WX    TMP DP  RH WIND       PRES   REMARKS
JACKSON          N/A     46  46 100 CALM      30.06R
CODY           CLOUDY    54  52  94 CALM      29.95F
GREYBULL       CLOUDY    57  56  96 NW6       29.91F
WORLAND        LGT RAIN  57  55  93 SW5       29.92F
SHERIDAN       CLOUDY    60  58  92 NW5       29.87S FOG
BUFFALO        CLOUDY    58  57  97 CALM      29.91F FOG
GILLETTE       CLOUDY    61  59  93 SE13      29.90S
HULETT         CLOUDY    63  61  94 MISG      29.92
NEWCASTLE      CLOUDY    61  57  88 SE10      29.93

$$
WYZ014>020-022>026-101>103-231500-
CENTRAL WYOMING

CITY           SKY/WX    TMP DP  RH WIND       PRES   REMARKS
BIG PINEY      CLOUDY    46  44  93 SW3       30.10R
PINEDALE       CLOUDY    45  45 100 S6        30.11R
DUBOIS         CLOUDY    45  37  76 NW12      30.04S
LANDER         PTSUNNY   51  51 100 SE3       29.96S
RIVERTON       CLOUDY    53  51  93 CALM      29.98S
CASPER         PTSUNNY   57  52  83 SW8       29.95F
DOUGLAS        PTSUNNY   59  55  87 CALM      29.95S

$$
WYZ021-027>030-104>119-231500-
SOUTHERN WYOMING

CITY           SKY/WX    TMP DP  RH WIND       PRES   REMARKS
EVANSTON       CLOUDY    43  39  86 S10       30.12F
KEMMERER       LGT RAIN  43  43 100 CALM      30.12S
FORT BRIDGER     N/A     45  42  90 SW23G39   30.18R
ROCK SPRINGS   PTSUNNY   46  44  93 SW3       30.09R
DIXON          PTSUNNY   50  46  84 CALM      30.11F
RAWLINS        CLOUDY    50  44  80 W3        30.07S
SARATOGA       FAIR      50  45  81 MISG      30.09S
LARAMIE        PTSUNNY   52  48  86 CALM      30.07F
CHEYENNE       CLOUDY    58  54  86 W6        30.00F
TORRINGTON     CLOUDY    61  60  97 SE6       29.91R
PINE BLUFFS    CLOUDY    59  57  94 SW5       29.97S

$$



USA.gov is the U.S. government's official web portal to all federal, state and local government web resources and services.